Troy, MI

1:21 AM EST on December 15, 2017 (GMT -0500)
Troy

Weather History for KVLL - December, 2017

Change the Weather History Date:

Thursday, December 7, 2017

  Actual Average (KDET) Record (KDET)
Temperature  
Mean Temperature 29 °F -  
Max Temperature 33 °F 38 °F 62 °F (1951)
Min Temperature 25 °F 28 °F 9 °F (1972)
Degree Days  
Heating Degree Days 36    
Moisture  
Dew Point 17 °F    
Average Humidity 60    
Maximum Humidity 76    
Minimum Humidity 46    
Precipitation  
Precipitation 0.00 in - - ()
Sea Level Pressure  
Sea Level Pressure 30.01 in    
Wind  
Wind Speed 9 mph (West)    
Max Wind Speed 16 mph    
Max Gust Speed 23 mph    
Visibility 10 miles    
Events Snow    
Averages and records for this station are not official NWS values.
T = Trace of Precipitation, MM = Missing Value Source: NWS Daily Summary

Daily Weather History Graph

Daily Weather History Graph

Search for Another Location

Airport or City:

Trip Planner

Search our weather history database for the weather conditions in past years. The results will help you decide how hot, cold, wet, or windy it might be!

Date:

Astronomy

Dec. 07, 2017 Rise Set
Actual Time 7:49 AM EST 4:59 PM EST
Civil Twilight 7:17 AM EST 5:31 PM EST
Nautical Twilight 6:41 AM EST 6:06 PM EST
Astronomical Twilight 6:07 AM EST 6:40 PM EST
Moon 9:47 PM EST (12/7) 11:25 AM EST (12/7)
Length of Visible Light 10h 13m
Length of Day
9h 10m
Waning Gibbous, 78% of the Moon is Illuminated
Dec 7
Waning Gibbous
Dec 10
Last Quarter
Dec 18
New
Dec 26
First Quarter
Jan 1
Full

Hourly Weather History & Observations

Time (EST) Temp. Windchill Dew Point Humidity Pressure Visibility Wind Dir Wind Speed Gust Speed Precip Events Conditions
12:14 AM 33.8 °F 27.0 °F 17.6 °F 52% 29.95 in 10.0 mi SW 8.1 mph - N/A   Overcast
12:35 AM 33.4 °F 26.6 °F 17.2 °F 52% 29.94 in 10.0 mi SW 8.1 mph - N/A   Overcast
12:54 AM 33.4 °F 25.4 °F 17.1 °F 51% 29.94 in 10.0 mi SW 10.4 mph 17.3 mph N/A   Overcast
1:15 AM 33.4 °F 26.6 °F 16.9 °F 51% 29.94 in 10.0 mi WSW 8.1 mph - N/A   Overcast
1:35 AM 33.4 °F 27.3 °F 17.1 °F 51% 29.94 in 10.0 mi WSW 6.9 mph - N/A   Overcast
1:54 AM 33.8 °F 27.0 °F 17.4 °F 51% 29.95 in 10.0 mi West 8.1 mph - N/A   Overcast
2:15 AM 31.6 °F 23.7 °F 21.4 °F 66% 29.96 in 10.0 mi NNW 9.2 mph - N/A   Overcast
2:35 AM 30.6 °F 23.8 °F 21.0 °F 68% 29.97 in 10.0 mi NW 6.9 mph - N/A   Overcast
2:54 AM 30.2 °F 21.9 °F 20.1 °F 66% 29.97 in 10.0 mi WNW 9.2 mph - N/A   Overcast
3:15 AM 30.2 °F 24.3 °F 19.8 °F 65% 29.97 in 10.0 mi NW 5.8 mph - N/A   Overcast
3:35 AM 30.0 °F 23.2 °F 19.4 °F 65% 29.98 in 10.0 mi WNW 6.9 mph - N/A   Overcast
3:54 AM 29.8 °F 23.9 °F 19.8 °F 66% 29.98 in 10.0 mi WNW 5.8 mph - N/A   Overcast
4:15 AM 29.7 °F 23.7 °F 19.9 °F 67% 29.97 in 10.0 mi WNW 5.8 mph - N/A Snow Light Snow
4:35 AM 29.7 °F 24.7 °F 20.1 °F 68% 29.97 in 10.0 mi WNW 4.6 mph - N/A   Overcast
4:54 AM 29.7 °F 20.1 °F 19.4 °F 66% 29.97 in 10.0 mi West 11.5 mph - N/A   Overcast
5:15 AM 29.7 °F 20.7 °F 19.4 °F 66% 29.97 in 10.0 mi West 10.4 mph 16.1 mph N/A   Overcast
5:34 AM 29.3 °F 21.5 °F 19.4 °F 67% 29.97 in 10.0 mi West 8.1 mph - N/A   Overcast
5:54 AM 29.3 °F 20.2 °F 19.2 °F 66% 29.98 in 10.0 mi West 10.4 mph 17.3 mph N/A Snow Light Snow
6:15 AM 29.7 °F 22.8 °F 19.6 °F 66% 29.98 in 10.0 mi West 6.9 mph - N/A Snow Light Snow
6:34 AM 28.8 °F 18.4 °F 18.5 °F 66% 29.99 in 10.0 mi West 12.7 mph - N/A Snow Light Snow
6:54 AM 28.8 °F 21.7 °F 17.4 °F 63% 29.99 in 10.0 mi West 6.9 mph - N/A   Overcast
7:15 AM 28.2 °F 20.2 °F 17.4 °F 64% 29.99 in 10.0 mi West 8.1 mph - N/A   Overcast
7:34 AM 28.2 °F 22.0 °F 17.8 °F 65% 30.00 in 10.0 mi West 5.8 mph - N/A   Overcast
7:54 AM 28.2 °F 19.5 °F 18.5 °F 67% 30.00 in 10.0 mi West 9.2 mph - N/A Snow Light Snow
8:15 AM 27.9 °F 19.1 °F 18.1 °F 67% 30.00 in 5.0 mi WSW 9.2 mph - N/A Snow Light Snow
8:34 AM 27.9 °F 21.5 °F 19.4 °F 71% 30.01 in 2.5 mi West 5.8 mph - N/A Snow Light Snow
8:54 AM 27.1 °F 20.7 °F 19.8 °F 74% 30.01 in 3.0 mi West 5.8 mph - N/A Snow Light Snow
9:14 AM 27.3 °F 18.4 °F 19.6 °F 73% 30.02 in 10.0 mi West 9.2 mph - N/A   Overcast
9:34 AM 27.3 °F 17.7 °F 17.8 °F 67% 30.02 in 10.0 mi WSW 10.4 mph - N/A   Overcast
9:54 AM 27.3 °F 17.1 °F 15.8 °F 62% 30.02 in 10.0 mi West 11.5 mph 18.4 mph N/A   Overcast
10:14 AM 27.7 °F 20.4 °F 16.3 °F 62% 30.02 in 10.0 mi West 6.9 mph - N/A   Overcast
10:35 AM 28.2 °F 18.9 °F 17.6 °F 64% 30.03 in 7.0 mi WSW 10.4 mph - N/A   Overcast
10:55 AM 28.8 °F 19.0 °F 15.4 °F 58% 30.03 in 10.0 mi West 11.5 mph 23.0 mph N/A   Mostly Cloudy
11:15 AM 28.6 °F 16.8 °F 14.0 °F 54% 30.03 in 10.0 mi West 16.1 mph - N/A   Mostly Cloudy
11:34 AM 28.4 °F 17.5 °F 14.0 °F 55% 30.02 in 10.0 mi West 13.8 mph 17.3 mph N/A   Scattered Clouds
11:55 AM 28.4 °F 19.1 °F 13.6 °F 54% 30.01 in 10.0 mi West 10.4 mph 20.7 mph N/A   Scattered Clouds
12:14 PM 28.9 °F 17.7 °F 13.3 °F 52% 30.01 in 10.0 mi West 15.0 mph 20.7 mph N/A   Mostly Cloudy
12:34 PM 29.7 °F 18.6 °F 13.1 °F 50% 30.00 in 10.0 mi West 15.0 mph 21.9 mph N/A   Overcast
12:55 PM 30.6 °F 19.8 °F 13.1 °F 48% 30.00 in 10.0 mi WSW 15.0 mph 19.6 mph N/A   Overcast
1:14 PM 30.2 °F 19.8 °F 12.7 °F 48% 30.00 in 10.0 mi WSW 13.8 mph 20.7 mph N/A   Overcast
1:34 PM 30.2 °F 20.2 °F 12.9 °F 49% 29.99 in 10.0 mi West 12.7 mph 23.0 mph N/A   Overcast
1:55 PM 30.2 °F 19.3 °F 12.7 °F 48% 29.99 in 10.0 mi West 15.0 mph 20.7 mph N/A   Mostly Cloudy
2:14 PM 30.2 °F 18.9 °F 12.9 °F 49% 29.99 in 10.0 mi West 16.1 mph 21.9 mph N/A   Mostly Cloudy
2:35 PM 30.2 °F 20.8 °F 13.3 °F 49% 29.99 in 10.0 mi West 11.5 mph 18.4 mph N/A   Overcast
2:54 PM 30.7 °F 20.4 °F 12.9 °F 48% 30.00 in 10.0 mi West 13.8 mph 17.3 mph N/A   Overcast
3:14 PM 30.4 °F 20.0 °F 12.9 °F 48% 30.00 in 10.0 mi West 13.8 mph 19.6 mph N/A   Overcast
3:35 PM 30.7 °F 20.9 °F 11.8 °F 46% 30.00 in 10.0 mi West 12.7 mph 19.6 mph N/A   Overcast
3:54 PM 30.2 °F 20.8 °F 12.0 °F 47% 30.00 in 10.0 mi West 11.5 mph 17.3 mph N/A   Overcast
4:14 PM 30.2 °F 19.3 °F 13.5 °F 50% 30.01 in 10.0 mi West 15.0 mph 20.7 mph N/A   Overcast
4:35 PM 30.0 °F 21.1 °F 13.8 °F 51% 30.01 in 10.0 mi West 10.4 mph - N/A   Overcast
4:54 PM 30.2 °F 21.9 °F 13.1 °F 49% 30.01 in 10.0 mi West 9.2 mph - N/A   Overcast
5:14 PM 30.2 °F 20.2 °F 13.1 °F 49% 30.02 in 10.0 mi WSW 12.7 mph 21.9 mph N/A   Overcast
5:35 PM 29.7 °F 20.1 °F 14.0 °F 52% 30.02 in 10.0 mi WSW 11.5 mph 18.4 mph N/A   Overcast
5:54 PM 29.1 °F 21.3 °F 15.1 °F 56% 30.02 in 10.0 mi WSW 8.1 mph - N/A   Overcast
6:15 PM 29.1 °F 18.9 °F 16.7 °F 60% 30.04 in 10.0 mi WSW 12.7 mph 20.7 mph N/A   Overcast
6:35 PM 28.8 °F 18.4 °F 17.6 °F 63% 30.04 in 10.0 mi WSW 12.7 mph 18.4 mph N/A   Overcast
6:54 PM 28.4 °F 18.5 °F 16.3 °F 61% 30.05 in 10.0 mi West 11.5 mph 19.6 mph N/A Snow Light Snow
7:15 PM 28.2 °F 18.9 °F 15.8 °F 60% 30.05 in 10.0 mi WSW 10.4 mph 18.4 mph N/A Snow Light Snow
7:34 PM 27.3 °F 18.4 °F 18.9 °F 70% 30.06 in 4.0 mi West 9.2 mph 19.6 mph N/A Snow Light Snow
7:54 PM 26.6 °F 15.7 °F 19.9 °F 76% 30.06 in 3.0 mi West 12.7 mph 21.9 mph N/A Snow Light Snow
8:15 PM 26.6 °F 15.7 °F 19.8 °F 75% 30.06 in 10.0 mi West 12.7 mph 19.6 mph N/A Snow Light Snow
8:34 PM 26.4 °F 16.6 °F 17.6 °F 69% 30.07 in 10.0 mi West 10.4 mph 19.6 mph N/A Snow Light Snow
8:55 PM 26.2 °F 16.4 °F 18.1 °F 71% 30.07 in 10.0 mi West 10.4 mph - N/A Snow Light Snow
9:15 PM 26.2 °F 17.1 °F 17.4 °F 69% 30.06 in 10.0 mi WSW 9.2 mph 17.3 mph N/A   Overcast
9:34 PM 26.6 °F 15.7 °F 13.3 °F 57% 30.07 in 10.0 mi West 12.7 mph 18.4 mph N/A   Overcast
9:54 PM 26.1 °F 16.2 °F 14.7 °F 62% 30.06 in 7.0 mi West 10.4 mph - N/A Snow Light Snow
10:15 PM 26.4 °F 17.3 °F 14.4 °F 60% 30.05 in 10.0 mi SW 9.2 mph - N/A   Overcast
10:34 PM 26.2 °F 17.1 °F 16.3 °F 66% 30.05 in 10.0 mi SW 9.2 mph - N/A   Overcast
10:55 PM 25.7 °F 16.4 °F 16.5 °F 68% 30.05 in 10.0 mi SW 9.2 mph 20.7 mph N/A Snow Light Snow
11:15 PM 25.5 °F 14.9 °F 15.8 °F 67% 30.05 in 10.0 mi SW 11.5 mph 18.4 mph N/A   Overcast
11:34 PM 25.3 °F 17.6 °F 15.4 °F 66% 30.05 in 10.0 mi SW 6.9 mph 20.7 mph N/A   Overcast
11:55 PM 25.3 °F 16.0 °F 15.3 °F 66% 30.04 in 10.0 mi SW 9.2 mph - N/A   Overcast